Location: Bonny Doon Airfield
(37.0704°N, 122.1252°W)
Time: 12:03:36
(UTC-07:00)

BREEZE M DEB (TANK) - Visible Passes

Search period start: 17 April 2014 00:00
Search period end: 27 April 2014 00:00
Orbit: 324 x 13871 km, 49.5° (Epoch: 17 April)

Date Brightness Start Highest point End Pass type
(mag) Time Alt. Az. Time Alt. Az. Time Alt. Az.
17 Apr 6.6 00:00:00 85° S 00:00:46 87° SE 01:19:44 10° ENE visible
17 Apr 8.3 04:23:35 10° WNW 05:19:09 77° NNE 07:19:08 10° SE visible
17 Apr 6.3 21:29:06 26° SE 21:33:37 31° E 22:03:15 10° NE visible
18 Apr 7.7 01:51:14 10° W 02:13:14 69° N 04:20:57 10° E visible
18 Apr 6.6 23:24:13 21° SW 23:33:22 82° SE 00:44:02 10° ENE visible
19 Apr 8.3 03:56:14 10° WNW 04:45:43 75° NNE 06:50:10 10° SE visible
19 Apr 6.4 20:59:44 13° SE 21:07:18 26° E 21:31:34 10° NE visible
20 Apr 7.6 01:24:17 10° W 01:43:58 70° NNW 03:46:50 10° E visible
20 Apr 8.8 06:03:27 10° NW 07:20:56 79° WSW 08:58:21 10° SSE visible
20 Apr 6.4 22:55:55 10° SW 23:06:01 77° SE 00:08:50 10° ENE visible
21 Apr 8.2 03:28:50 10° WNW 04:12:40 73° NNE 06:20:42 10° SE visible
21 Apr 6.5 20:33:21 10° SE 20:40:57 21° E 20:59:58 10° NE visible
22 Apr 7.5 00:57:16 10° W 01:14:56 70° NNW 03:11:33 10° E visible
22 Apr 8.7 05:35:29 10° WNW 06:49:10 83° WSW 08:30:41 10° SSE visible
22 Apr 6.3 22:29:17 10° SSW 22:38:43 72° SE 23:34:14 10° NE visible
23 Apr 8.1 03:01:23 10° WNW 03:40:07 71° NNE 05:50:41 10° ESE visible
23 Apr 6.5 20:07:53 10° SE 20:14:32 17° E 20:28:18 10° ENE visible
24 Apr 7.5 00:30:12 10° WSW 00:46:05 72° NNW 02:35:07 10° E visible
24 Apr 8.7 05:07:31 10° WNW 06:16:56 86° SW 08:02:43 10° SSE visible
24 Apr 6.2 22:02:35 10° SSW 22:11:26 65° SE 23:00:15 10° NE visible
25 Apr 8.1 02:33:53 10° WNW 03:08:05 70° NNE 05:20:01 10° ESE visible
26 Apr 7.4 00:03:04 10° WSW 00:17:23 73° NNW 01:57:44 10° ENE visible
26 Apr 8.6 04:39:32 10° WNW 05:44:17 90° SW 07:34:25 10° SSE visible
26 Apr 6.1 21:35:50 10° SSW 21:44:11 59° ESE 22:26:51 10° NE visible
